Regional Weather Roundup
Issued by NWS

Home | Current Version | Previous Version | Graphics & Text | Print | Product List | Glossary On
Versions: 1 2 3 4 5 6 7 8 9 10 11 12 13 14 15 16 17 18 19 20 21 22 23 24 25 26 27 28 29 30 31 32 33 34 35 36 37 38 39 40 41 42 43 44 45 46 47 48 49 50
000
ASUS43 KLMK 230502
RWRKY
KENTUCKY REGIONAL WEATHER ROUNDUP
NATIONAL WEATHER SERVICE LOUISVILLE KY
100 AM EDT WED AUG 23 2017

NOTE "FAIR" INDICATES FEW OR NO CLOUDS BELOW 12,000 FEET
WITH NO SIGNIFICANT WEATHER AND/OR OBSTRUCTIONS TO VISIBILITY.

KYZ001>023-026-027-061>063-070>075-230600-
WESTERN AND SOUTH CENTRAL KENTUCKY

CITY           SKY/WX    TMP DP  RH WIND       PRES   REMARKS
PADUCAH        CLEAR     69  66  90 CALM      30.02S
HENDERSON      NOT AVBL
OWENSBORO      CLOUDY    72  67  84 N6        30.01R
HOPKINSVILLE   CLOUDY    71  71 100 NW6       30.01S
BOWLING GREEN  CLOUDY    73  72  96 W5        29.99F
GLASGOW        CLOUDY   N/A N/A N/A NW3       29.99S
$$

KYZ024-025-028>034-038-045-046-053-230600-
NORTH CENTRAL KENTUCKY

CITY           SKY/WX    TMP DP  RH WIND       PRES   REMARKS
LOUISVILLE/SDF CLOUDY    73  70  90 W8        29.97R
LOUISVILLE/LOU MOCLDY    72  72 100 NW5       29.98S
FORT KNOX      CLOUDY    68  68 100 W6        29.98R
$$

KYZ035>037-039>044-047>052-055>060-089>105-230600-
NORTHEAST KENTUCKY

CITY           SKY/WX    TMP DP  RH WIND       PRES   REMARKS
LEXINGTON      MOCLDY    70  68  93 CALM      29.99R
COVINGTON      CLOUDY    71  67  87 N9        29.97R
FRANKFORT      CLOUDY    71  69  93 W5        29.97R FOG
$$

KYZ054-064>069-076>088-106>120-230600-
SOUTHEAST KENTUCKY

CITY           SKY/WX    TMP DP  RH WIND       PRES   REMARKS
JACKSON        FOG       70  69  97 VRB3      29.98S VSB 1
LONDON         LGT RAIN  70  68  93 S6        30.00R
SOMERSET       NOT AVBL
MIDDLESBORO    RAIN      73  73 100 CALM      30.00R
MONTICELLO     CLOUDY    72  72 100 W8        30.02R
$$





USA.gov is the U.S. government's official web portal to all federal, state and local government web resources and services.